Time,TemperatureF,DewpointF,PressureIn,WindDirection,WindDirectionDegrees,WindSpeedMPH,WindSpeedGustMPH,Humidity,HourlyPrecipIn,Conditions,Clouds,dailyrainin,SoftwareType,DateUTC
2013-04-21 00:00:00,38.2,28.6,30.38,East,86,0.0,0.0,68,0.00,,,0.00,Wunderground v.1.15,2013-04-21 05:00:00,
2013-04-21 00:05:00,38.0,28.4,30.38,East,86,0.0,0.0,68,0.00,,,0.00,Wunderground v.1.15,2013-04-21 05:05:00,
2013-04-21 00:10:00,38.0,28.4,30.38,East,86,0.0,0.0,68,0.00,,,0.00,Wunderground v.1.15,2013-04-21 05:10:00,
2013-04-21 00:15:00,38.0,28.4,30.38,East,83,0.0,1.0,68,0.00,,,0.00,Wunderground v.1.15,2013-04-21 05:15:00,
2013-04-21 00:21:00,38.0,28.4,30.38,East,85,0.0,0.0,68,0.00,,,0.00,Wunderground v.1.15,2013-04-21 05:21:00,
2013-04-21 00:27:00,38.0,28.0,30.38,East,85,0.0,0.0,67,0.00,,,0.00,Wunderground v.1.15,2013-04-21 05:27:00,
2013-04-21 00:33:00,38.2,28.2,30.38,East,93,0.0,1.0,67,0.00,,,0.00,Wunderground v.1.15,2013-04-21 05:33:00,
2013-04-21 00:38:00,38.0,28.0,30.38,East,92,0.0,1.0,67,0.00,,,0.00,Wunderground v.1.15,2013-04-21 05:38:00,
2013-04-21 00:44:00,37.9,28.3,30.38,East,92,0.0,0.0,68,0.00,,,0.00,Wunderground v.1.15,2013-04-21 05:44:00,
2013-04-21 00:49:00,37.9,28.3,30.38,East,93,0.0,1.0,68,0.00,,,0.00,Wunderground v.1.15,2013-04-21 05:49:00,
2013-04-21 00:55:00,37.9,28.3,30.38,SE,137,0.0,3.0,68,0.00,,,0.00,Wunderground v.1.15,2013-04-21 05:55:00,
2013-04-21 01:00:00,37.9,28.3,30.38,SE,134,0.0,1.0,68,0.00,,,0.00,Wunderground v.1.15,2013-04-21 06:00:00,
2013-04-21 01:06:00,37.9,28.3,30.38,SE,124,0.0,2.0,68,0.00,,,0.00,Wunderground v.1.15,2013-04-21 06:06:00,
2013-04-21 01:12:00,38.0,28.4,30.38,ESE,114,0.0,1.0,68,0.00,,,0.00,Wunderground v.1.15,2013-04-21 06:12:00,
2013-04-21 01:17:00,37.9,28.3,30.38,ESE,114,0.0,2.0,68,0.00,,,0.00,Wunderground v.1.15,2013-04-21 06:17:00,
2013-04-21 01:23:00,37.9,28.3,30.38,ESE,109,0.0,1.0,68,0.00,,,0.00,Wunderground v.1.15,2013-04-21 06:23:00,
2013-04-21 01:28:00,38.0,28.4,30.38,ESE,103,1.0,2.0,68,0.00,,,0.00,Wunderground v.1.15,2013-04-21 06:28:00,
2013-04-21 01:34:00,38.0,28.4,30.38,ESE,103,1.0,2.0,68,0.00,,,0.00,Wunderground v.1.15,2013-04-21 06:34:00,
2013-04-21 01:39:00,38.0,28.4,30.38,ESE,102,1.0,2.0,68,0.00,,,0.00,Wunderground v.1.15,2013-04-21 06:39:00,
2013-04-21 01:45:00,38.0,28.4,30.38,ESE,103,0.0,1.0,68,0.00,,,0.00,Wunderground v.1.15,2013-04-21 06:45:00,
2013-04-21 01:50:00,37.9,28.3,30.39,ESE,117,0.0,0.0,68,0.00,,,0.00,Wunderground v.1.15,2013-04-21 06:50:00,
2013-04-21 01:56:00,37.9,28.3,30.39,SE,126,1.0,2.0,68,0.00,,,0.00,Wunderground v.1.15,2013-04-21 06:56:00,
2013-04-21 02:02:00,37.9,28.3,30.39,SE,131,1.0,1.0,68,0.00,,,0.00,Wunderground v.1.15,2013-04-21 07:02:00,
2013-04-21 02:07:00,37.9,28.3,30.39,East,92,1.0,1.0,68,0.00,,,0.00,Wunderground v.1.15,2013-04-21 07:07:00,
2013-04-21 02:13:00,37.9,28.3,30.39,East,96,1.0,1.0,68,0.00,,,0.00,Wunderground v.1.15,2013-04-21 07:13:00,
2013-04-21 02:18:00,37.8,28.5,30.39,ESE,104,1.0,1.0,69,0.00,,,0.00,Wunderground v.1.15,2013-04-21 07:18:00,
2013-04-21 02:24:00,37.6,28.3,30.39,East,100,1.0,1.0,69,0.00,,,0.00,Wunderground v.1.15,2013-04-21 07:24:00,
2013-04-21 02:30:00,37.5,28.2,30.39,East,90,0.0,1.0,69,0.00,,,0.00,Wunderground v.1.15,2013-04-21 07:30:00,
2013-04-21 02:36:00,37.3,28.1,30.39,East,95,1.0,2.0,69,0.00,,,0.00,Wunderground v.1.15,2013-04-21 07:36:00,
2013-04-21 02:42:00,37.5,28.2,30.39,ENE,72,1.0,1.0,69,0.00,,,0.00,Wunderground v.1.15,2013-04-21 07:42:00,
2013-04-21 02:48:00,37.3,28.4,30.38,East,88,1.0,1.0,70,0.00,,,0.00,Wunderground v.1.15,2013-04-21 07:48:00,
2013-04-21 02:54:00,37.2,28.3,30.38,East,83,1.0,2.0,70,0.00,,,0.00,Wunderground v.1.15,2013-04-21 07:54:00,
2013-04-21 03:00:00,37.3,28.4,30.38,East,82,2.0,4.0,70,0.00,,,0.00,Wunderground v.1.15,2013-04-21 08:00:00,
2013-04-21 03:06:00,37.2,28.3,30.38,ESE,104,2.0,4.0,70,0.00,,,0.00,Wunderground v.1.15,2013-04-21 08:06:00,
2013-04-21 03:11:00,37.3,28.4,30.38,East,90,1.0,5.0,70,0.00,,,0.00,Wunderground v.1.15,2013-04-21 08:11:00,
2013-04-21 03:17:00,37.3,28.1,30.38,ESE,107,2.0,5.0,69,0.00,,,0.00,Wunderground v.1.15,2013-04-21 08:17:00,
2013-04-21 03:22:00,37.3,28.4,30.38,East,82,2.0,3.0,70,0.00,,,0.00,Wunderground v.1.15,2013-04-21 08:22:00,
2013-04-21 03:28:00,37.2,28.3,30.38,SSE,164,2.0,6.0,70,0.00,,,0.00,Wunderground v.1.15,2013-04-21 08:28:00,
2013-04-21 03:34:00,37.2,28.3,30.38,SE,124,3.0,7.0,70,0.00,,,0.00,Wunderground v.1.15,2013-04-21 08:34:00,
2013-04-21 03:39:00,37.0,28.1,30.38,SE,136,2.0,7.0,70,0.00,,,0.00,Wunderground v.1.15,2013-04-21 08:39:00,
2013-04-21 03:45:00,37.0,28.1,30.38,ESE,114,2.0,3.0,70,0.00,,,0.00,Wunderground v.1.15,2013-04-21 08:45:00,
2013-04-21 03:50:00,37.2,28.3,30.39,East,100,2.0,6.0,70,0.00,,,0.00,Wunderground v.1.15,2013-04-21 08:50:00,
2013-04-21 03:56:00,37.3,28.1,30.39,SSE,154,2.0,6.0,69,0.00,,,0.00,Wunderground v.1.15,2013-04-21 08:56:00,
2013-04-21 04:02:00,37.3,28.1,30.39,SE,126,1.0,3.0,69,0.00,,,0.00,Wunderground v.1.15,2013-04-21 09:02:00,
2013-04-21 04:07:00,37.3,28.1,30.39,ESE,107,2.0,3.0,69,0.00,,,0.00,Wunderground v.1.15,2013-04-21 09:07:00,
2013-04-21 04:13:00,37.5,28.2,30.39,ESE,120,3.0,3.0,69,0.00,,,0.00,Wunderground v.1.15,2013-04-21 09:13:00,
2013-04-21 04:18:00,37.5,27.9,30.39,ESE,121,2.0,7.0,68,0.00,,,0.00,Wunderground v.1.15,2013-04-21 09:18:00,
2013-04-21 04:24:00,37.6,28.0,30.39,ESE,110,2.0,3.0,68,0.00,,,0.00,Wunderground v.1.15,2013-04-21 09:24:00,
2013-04-21 04:29:00,37.8,27.8,30.39,SE,124,2.0,7.0,67,0.00,,,0.00,Wunderground v.1.15,2013-04-21 09:29:00,
2013-04-21 04:35:00,37.8,28.2,30.39,East,95,2.0,6.0,68,0.00,,,0.00,Wunderground v.1.15,2013-04-21 09:35:00,
2013-04-21 04:40:00,37.9,27.9,30.39,ENE,78,3.0,3.0,67,0.00,,,0.00,Wunderground v.1.15,2013-04-21 09:40:00,
2013-04-21 04:45:00,37.9,27.9,30.39,SE,133,3.0,5.0,67,0.00,,,0.00,Wunderground v.1.15,2013-04-21 09:45:00,
2013-04-21 04:50:00,38.0,28.0,30.39,SE,127,3.0,3.0,67,0.00,,,0.00,Wunderground v.1.15,2013-04-21 09:50:00,
2013-04-21 04:56:00,38.2,27.8,30.39,ESE,119,3.0,8.0,66,0.00,,,0.00,Wunderground v.1.15,2013-04-21 09:56:00,
2013-04-21 05:02:00,38.3,27.9,30.40,SE,140,4.0,6.0,66,0.00,,,0.00,Wunderground v.1.15,2013-04-21 10:02:00,
2013-04-21 05:07:00,38.3,27.9,30.40,ESE,109,5.0,6.0,66,0.00,,,0.00,Wunderground v.1.15,2013-04-21 10:07:00,
2013-04-21 05:13:00,38.3,27.6,30.40,ESE,117,5.0,8.0,65,0.00,,,0.00,Wunderground v.1.15,2013-04-21 10:13:00,
2013-04-21 05:19:00,38.5,27.7,30.39,East,99,5.0,10.0,65,0.00,,,0.00,Wunderground v.1.15,2013-04-21 10:19:00,
2013-04-21 05:24:00,38.5,27.7,30.39,ENE,73,5.0,7.0,65,0.00,,,0.00,Wunderground v.1.15,2013-04-21 10:24:00,
2013-04-21 05:30:00,38.5,27.7,30.39,East,83,4.0,4.0,65,0.00,,,0.00,Wunderground v.1.15,2013-04-21 10:30:00,
2013-04-21 05:36:00,38.5,27.4,30.39,East,96,4.0,5.0,64,0.00,,,0.00,Wunderground v.1.15,2013-04-21 10:36:00,
2013-04-21 05:42:00,38.5,27.4,30.39,SE,128,4.0,6.0,64,0.00,,,0.00,Wunderground v.1.15,2013-04-21 10:42:00,
2013-04-21 05:48:00,38.5,27.7,30.40,ESE,107,3.0,6.0,65,0.00,,,0.00,Wunderground v.1.15,2013-04-21 10:48:00,
2013-04-21 05:53:00,38.6,27.5,30.40,SE,144,4.0,10.0,64,0.00,,,0.00,Wunderground v.1.15,2013-04-21 10:53:00,
2013-04-21 05:58:00,38.8,27.7,30.40,SE,126,5.0,10.0,64,0.00,,,0.00,Wunderground v.1.15,2013-04-21 10:58:00,
2013-04-21 06:04:00,38.9,27.4,30.40,South,174,6.0,8.0,63,0.00,,,0.00,Wunderground v.1.15,2013-04-21 11:04:00,
2013-04-21 06:09:00,38.8,27.3,30.40,SE,130,6.0,8.0,63,0.00,,,0.00,Wunderground v.1.15,2013-04-21 11:09:00,
2013-04-21 06:15:00,38.8,27.3,30.41,ESE,113,6.0,8.0,63,0.00,,,0.00,Wunderground v.1.15,2013-04-21 11:15:00,
2013-04-21 06:21:00,38.6,27.8,30.41,ENE,76,6.0,6.0,65,0.00,,,0.00,Wunderground v.1.15,2013-04-21 11:21:00,
2013-04-21 06:26:00,38.6,27.5,30.41,East,100,7.0,7.0,64,0.00,,,0.00,Wunderground v.1.15,2013-04-21 11:26:00,
2013-04-21 06:32:00,38.6,27.5,30.41,ESE,114,7.0,11.0,64,0.00,,,0.00,Wunderground v.1.15,2013-04-21 11:32:00,
2013-04-21 06:37:00,38.6,27.1,30.41,SSE,147,6.0,11.0,63,0.00,,,0.00,Wunderground v.1.15,2013-04-21 11:37:00,
2013-04-21 06:43:00,38.6,27.5,30.41,ESE,114,6.0,8.0,64,0.00,,,0.00,Wunderground v.1.15,2013-04-21 11:43:00,
2013-04-21 06:48:00,38.6,27.1,30.42,SE,134,4.0,8.0,63,0.00,,,0.00,Wunderground v.1.15,2013-04-21 11:48:00,
2013-04-21 06:54:00,38.8,27.3,30.42,SSE,154,5.0,9.0,63,0.00,,,0.00,Wunderground v.1.15,2013-04-21 11:54:00,
2013-04-21 06:59:00,38.9,27.4,30.42,SE,144,6.0,9.0,63,0.00,,,0.00,Wunderground v.1.15,2013-04-21 11:59:00,
2013-04-21 07:05:00,38.9,27.4,30.43,SE,130,7.0,14.0,63,0.00,,,0.00,Wunderground v.1.15,2013-04-21 12:05:00,
2013-04-21 07:10:00,38.9,27.4,30.43,SSE,152,8.0,11.0,63,0.00,,,0.00,Wunderground v.1.15,2013-04-21 12:10:00,
2013-04-21 07:15:00,38.9,27.8,30.43,SSE,148,7.0,11.0,64,0.00,,,0.00,Wunderground v.1.15,2013-04-21 12:15:00,
2013-04-21 07:20:00,38.9,27.8,30.44,SSE,151,6.0,9.0,64,0.00,,,0.00,Wunderground v.1.15,2013-04-21 12:20:00,
2013-04-21 07:25:00,39.1,27.9,30.44,SSE,162,5.0,14.0,64,0.00,,,0.00,Wunderground v.1.15,2013-04-21 12:25:00,
2013-04-21 07:30:00,39.1,27.6,30.44,ESE,107,6.0,11.0,63,0.00,,,0.00,Wunderground v.1.15,2013-04-21 12:30:00,
2013-04-21 07:36:00,39.2,27.7,30.44,SSE,168,7.0,11.0,63,0.00,,,0.00,Wunderground v.1.15,2013-04-21 12:36:00,
2013-04-21 07:42:00,39.3,28.1,30.44,ESE,123,5.0,11.0,64,0.00,,,0.00,Wunderground v.1.15,2013-04-21 12:42:00,
2013-04-21 07:47:00,39.5,27.5,30.44,SE,143,6.0,13.0,62,0.00,,,0.00,Wunderground v.1.15,2013-04-21 12:47:00,
2013-04-21 07:53:00,39.8,28.2,30.44,SE,130,6.0,7.0,63,0.00,,,0.00,Wunderground v.1.15,2013-04-21 12:53:00,
2013-04-21 07:58:00,39.9,27.5,30.44,East,89,4.0,10.0,61,0.00,,,0.00,Wunderground v.1.15,2013-04-21 12:58:00,
2013-04-21 08:04:00,40.2,28.6,30.45,ESE,102,4.0,4.0,63,0.00,,,0.00,Wunderground v.1.15,2013-04-21 13:04:00,
2013-04-21 08:09:00,40.5,28.1,30.45,SSE,148,3.0,8.0,61,0.00,,,0.00,Wunderground v.1.15,2013-04-21 13:09:00,
2013-04-21 08:15:00,40.8,28.0,30.45,NE,48,5.0,11.0,60,0.00,,,0.00,Wunderground v.1.15,2013-04-21 13:15:00,
2013-04-21 08:20:00,41.2,27.9,30.45,ESE,106,7.0,14.0,59,0.00,,,0.00,Wunderground v.1.15,2013-04-21 13:20:00,
2013-04-21 08:26:00,41.5,27.8,30.45,SSE,150,6.0,14.0,58,0.00,,,0.00,Wunderground v.1.15,2013-04-21 13:26:00,
2013-04-21 08:32:00,41.6,27.9,30.45,SSE,148,7.0,10.0,58,0.00,,,0.00,Wunderground v.1.15,2013-04-21 13:32:00,
2013-04-21 08:37:00,41.8,27.7,30.45,South,172,8.0,12.0,57,0.00,,,0.00,Wunderground v.1.15,2013-04-21 13:37:00,
2013-04-21 08:43:00,42.1,27.9,30.45,ESE,109,8.0,10.0,57,0.00,,,0.00,Wunderground v.1.15,2013-04-21 13:43:00,
2013-04-21 08:48:00,42.3,27.7,30.45,SSE,147,9.0,10.0,56,0.00,,,0.00,Wunderground v.1.15,2013-04-21 13:48:00,
2013-04-21 08:54:00,43.1,28.5,30.45,South,191,8.0,11.0,56,0.00,,,0.00,Wunderground v.1.15,2013-04-21 13:54:00,
2013-04-21 08:59:00,43.2,27.7,30.45,SE,126,7.0,11.0,54,0.00,,,0.00,Wunderground v.1.15,2013-04-21 13:59:00,
2013-04-21 09:05:00,43.3,28.2,30.45,ESE,102,7.0,11.0,55,0.00,,,0.00,Wunderground v.1.15,2013-04-21 14:05:00,
2013-04-21 09:10:00,43.3,27.3,30.45,ESE,113,8.0,19.0,53,0.00,,,0.00,Wunderground v.1.15,2013-04-21 14:10:00,
2013-04-21 09:16:00,43.8,27.3,30.45,SSE,154,10.0,19.0,52,0.00,,,0.00,Wunderground v.1.15,2013-04-21 14:16:00,
2013-04-21 09:22:00,44.1,28.0,30.45,ESE,117,9.0,15.0,53,0.00,,,0.00,Wunderground v.1.15,2013-04-21 14:22:00,
2013-04-21 09:27:00,44.6,28.5,30.45,South,169,9.0,17.0,53,0.00,,,0.00,Wunderground v.1.15,2013-04-21 14:27:00,
2013-04-21 09:33:00,45.7,28.6,30.44,SSE,151,6.0,9.0,51,0.00,,,0.00,Wunderground v.1.15,2013-04-21 14:33:00,
2013-04-21 09:38:00,44.8,27.3,30.44,ESE,102,8.0,17.0,50,0.00,,,0.00,Wunderground v.1.15,2013-04-21 14:38:00,
2013-04-21 09:44:00,44.8,27.8,30.44,ESE,121,11.0,19.0,51,0.00,,,0.00,Wunderground v.1.15,2013-04-21 14:44:00,
2013-04-21 09:49:00,45.1,28.5,30.44,SSE,154,10.0,19.0,52,0.00,,,0.00,Wunderground v.1.15,2013-04-21 14:49:00,
2013-04-21 09:55:00,45.1,28.0,30.44,ESE,110,11.0,19.0,51,0.00,,,0.00,Wunderground v.1.15,2013-04-21 14:55:00,
2013-04-21 10:00:00,44.9,28.8,30.44,SSE,160,9.0,16.0,53,0.00,,,0.00,Wunderground v.1.15,2013-04-21 15:00:00,
2013-04-21 10:06:00,44.8,28.7,30.44,SSE,148,9.0,16.0,53,0.00,,,0.00,Wunderground v.1.15,2013-04-21 15:06:00,
2013-04-21 10:12:00,45.5,28.9,30.44,SE,128,9.0,12.0,52,0.00,,,0.00,Wunderground v.1.15,2013-04-21 15:12:00,
2013-04-21 10:17:00,46.2,30.0,30.44,ESE,103,9.0,13.0,53,0.00,,,0.00,Wunderground v.1.15,2013-04-21 15:17:00,
2013-04-21 10:23:00,46.2,29.5,30.44,SE,143,11.0,20.0,52,0.00,,,0.00,Wunderground v.1.15,2013-04-21 15:23:00,
2013-04-21 10:28:00,46.4,29.7,30.44,SE,131,11.0,20.0,52,0.00,,,0.00,Wunderground v.1.15,2013-04-21 15:28:00,
2013-04-21 10:34:00,46.8,30.1,30.44,SSE,154,10.0,20.0,52,0.00,,,0.00,Wunderground v.1.15,2013-04-21 15:34:00,
2013-04-21 10:39:00,46.8,30.6,30.44,East,97,9.0,20.0,53,0.00,,,0.00,Wunderground v.1.15,2013-04-21 15:39:00,
2013-04-21 10:45:00,47.1,29.9,30.44,SE,126,9.0,14.0,51,0.00,,,0.00,Wunderground v.1.15,2013-04-21 15:45:00,
2013-04-21 10:50:00,46.7,30.0,30.43,SE,126,10.0,13.0,52,0.00,,,0.00,Wunderground v.1.15,2013-04-21 15:50:00,
2013-04-21 10:55:00,47.7,32.3,30.43,South,189,10.0,18.0,55,0.00,,,0.00,Wunderground v.1.15,2013-04-21 15:55:00,
2013-04-21 11:00:00,47.9,31.1,30.43,ENE,72,8.0,8.0,52,0.00,,,0.00,Wunderground v.1.15,2013-04-21 16:00:00,
2013-04-21 11:05:00,47.7,30.4,30.43,ESE,121,9.0,14.0,51,0.00,,,0.00,Wunderground v.1.15,2013-04-21 16:05:00,
2013-04-21 11:11:00,48.3,31.0,30.43,SE,136,9.0,10.0,51,0.00,,,0.00,Wunderground v.1.15,2013-04-21 16:11:00,
2013-04-21 11:16:00,48.6,31.3,30.42,South,175,8.0,16.0,51,0.00,,,0.00,Wunderground v.1.15,2013-04-21 16:16:00,
2013-04-21 11:22:00,48.8,31.9,30.42,ENE,58,9.0,12.0,52,0.00,,,0.00,Wunderground v.1.15,2013-04-21 16:22:00,
2013-04-21 11:27:00,49.1,31.7,30.42,ESE,119,9.0,15.0,51,0.00,,,0.00,Wunderground v.1.15,2013-04-21 16:27:00,
2013-04-21 11:33:00,49.4,31.5,30.41,SSE,148,9.0,17.0,50,0.00,,,0.00,Wunderground v.1.15,2013-04-21 16:33:00,
2013-04-21 11:38:00,49.2,31.3,30.41,SE,143,9.0,17.0,50,0.00,,,0.00,Wunderground v.1.15,2013-04-21 16:38:00,
2013-04-21 11:44:00,49.5,32.1,30.41,ESE,112,9.0,14.0,51,0.00,,,0.00,Wunderground v.1.15,2013-04-21 16:44:00,
2013-04-21 11:49:00,49.8,33.3,30.40,SE,127,9.0,14.0,53,0.00,,,0.00,Wunderground v.1.15,2013-04-21 16:49:00,
2013-04-21 11:55:00,49.8,32.4,30.40,East,79,9.0,14.0,51,0.00,,,0.00,Wunderground v.1.15,2013-04-21 16:55:00,
2013-04-21 12:00:00,50.4,31.9,30.40,SSE,150,8.0,19.0,49,0.00,,,0.00,Wunderground v.1.15,2013-04-21 17:00:00,
2013-04-21 12:06:00,50.7,33.2,30.40,SW,224,7.0,19.0,51,0.00,,,0.00,Wunderground v.1.15,2013-04-21 17:06:00,
2013-04-21 12:12:00,51.0,33.5,30.40,East,85,9.0,10.0,51,0.00,,,0.00,Wunderground v.1.15,2013-04-21 17:12:00,
2013-04-21 12:17:00,50.5,33.0,30.39,East,95,9.0,12.0,51,0.00,,,0.00,Wunderground v.1.15,2013-04-21 17:17:00,
2013-04-21 12:23:00,51.3,32.8,30.39,ENE,76,8.0,17.0,49,0.00,,,0.00,Wunderground v.1.15,2013-04-21 17:23:00,
2013-04-21 12:28:00,50.5,32.0,30.39,SE,130,9.0,17.0,49,0.00,,,0.00,Wunderground v.1.15,2013-04-21 17:28:00,
2013-04-21 12:34:00,50.8,34.3,30.38,East,79,8.0,12.0,53,0.00,,,0.00,Wunderground v.1.15,2013-04-21 17:34:00,
2013-04-21 12:39:00,51.1,33.6,30.38,East,93,8.0,13.0,51,0.00,,,0.00,Wunderground v.1.15,2013-04-21 17:39:00,
2013-04-21 12:45:00,51.4,34.3,30.38,SSW,202,8.0,8.0,52,0.00,,,0.00,Wunderground v.1.15,2013-04-21 17:45:00,
2013-04-21 12:50:00,51.4,32.9,30.37,SE,144,7.0,7.0,49,0.00,,,0.00,Wunderground v.1.15,2013-04-21 17:50:00,
2013-04-21 12:56:00,52.3,33.7,30.37,ESE,109,8.0,17.0,49,0.00,,,0.00,Wunderground v.1.15,2013-04-21 17:56:00,
2013-04-21 13:02:00,51.9,34.3,30.37,ESE,120,9.0,13.0,51,0.00,,,0.00,Wunderground v.1.15,2013-04-21 18:02:00,
2013-04-21 13:07:00,53.1,34.9,30.37,ESE,113,8.0,13.0,50,0.00,,,0.00,Wunderground v.1.15,2013-04-21 18:07:00,
2013-04-21 13:13:00,52.2,34.1,30.37,SSE,155,9.0,12.0,50,0.00,,,0.00,Wunderground v.1.15,2013-04-21 18:13:00,
2013-04-21 13:18:00,52.8,35.2,30.35,SSE,160,10.0,14.0,51,0.00,,,0.00,Wunderground v.1.15,2013-04-21 18:18:00,
2013-04-21 13:24:00,52.9,35.2,30.35,ESE,106,9.0,12.0,51,0.00,,,0.00,Wunderground v.1.15,2013-04-21 18:24:00,
2013-04-21 13:29:00,52.5,34.9,30.35,SSE,158,10.0,18.0,51,0.00,,,0.00,Wunderground v.1.15,2013-04-21 18:29:00,
2013-04-21 13:35:00,53.6,35.9,30.35,ESE,121,7.0,10.0,51,0.00,,,0.00,Wunderground v.1.15,2013-04-21 18:35:00,
2013-04-21 13:40:00,53.8,36.1,30.35,NE,54,7.0,7.0,51,0.00,,,0.00,Wunderground v.1.15,2013-04-21 18:40:00,
2013-04-21 13:46:00,53.6,36.4,30.34,SSE,148,8.0,12.0,52,0.00,,,0.00,Wunderground v.1.15,2013-04-21 18:46:00,
2013-04-21 13:52:00,53.9,36.7,30.34,ENE,78,8.0,8.0,52,0.00,,,0.00,Wunderground v.1.15,2013-04-21 18:52:00,
2013-04-21 13:57:00,53.8,36.1,30.34,ESE,110,9.0,12.0,51,0.00,,,0.00,Wunderground v.1.15,2013-04-21 18:57:00,
2013-04-21 14:03:00,53.9,36.2,30.34,SE,128,9.0,19.0,51,0.00,,,0.00,Wunderground v.1.15,2013-04-21 19:03:00,
2013-04-21 14:08:00,54.7,36.9,30.34,ESE,110,8.0,19.0,51,0.00,,,0.00,Wunderground v.1.15,2013-04-21 19:08:00,
2013-04-21 14:14:00,54.5,36.2,30.34,SSW,200,7.0,17.0,50,0.00,,,0.00,Wunderground v.1.15,2013-04-21 19:14:00,
2013-04-21 14:19:00,55.1,37.3,30.34,ESE,114,7.0,17.0,51,0.00,,,0.00,Wunderground v.1.15,2013-04-21 19:19:00,
2013-04-21 14:25:00,55.6,37.7,30.34,South,172,6.0,13.0,51,0.00,,,0.00,Wunderground v.1.15,2013-04-21 19:25:00,
2013-04-21 14:30:00,54.7,37.9,30.33,SE,134,7.0,7.0,53,0.00,,,0.00,Wunderground v.1.15,2013-04-21 19:30:00,
2013-04-21 14:36:00,55.1,37.3,30.33,ESE,107,9.0,12.0,51,0.00,,,0.00,Wunderground v.1.15,2013-04-21 19:36:00,
2013-04-21 14:42:00,55.4,37.6,30.33,SE,126,7.0,8.0,51,0.00,,,0.00,Wunderground v.1.15,2013-04-21 19:42:00,
2013-04-21 14:47:00,54.8,36.5,30.32,East,79,8.0,18.0,50,0.00,,,0.00,Wunderground v.1.15,2013-04-21 19:47:00,
2013-04-21 14:52:00,55.1,37.3,30.32,SE,145,9.0,13.0,51,0.00,,,0.00,Wunderground v.1.15,2013-04-21 19:52:00,
2013-04-21 14:58:00,55.7,37.8,30.32,ESE,119,8.0,13.0,51,0.00,,,0.00,Wunderground v.1.15,2013-04-21 19:58:00,
2013-04-21 15:03:00,56.5,37.6,30.31,SE,134,6.0,16.0,49,0.00,,,0.00,Wunderground v.1.15,2013-04-21 20:03:00,
2013-04-21 15:08:00,56.5,38.1,30.31,SE,137,7.0,16.0,50,0.00,,,0.00,Wunderground v.1.15,2013-04-21 20:08:00,
2013-04-21 15:14:00,56.0,37.6,30.31,ESE,102,7.0,15.0,50,0.00,,,0.00,Wunderground v.1.15,2013-04-21 20:14:00,
2013-04-21 15:20:00,55.7,37.3,30.31,East,99,8.0,8.0,50,0.00,,,0.00,Wunderground v.1.15,2013-04-21 20:20:00,
2013-04-21 15:26:00,56.2,38.3,30.31,East,97,8.0,17.0,51,0.00,,,0.00,Wunderground v.1.15,2013-04-21 20:26:00,
2013-04-21 15:32:00,56.2,39.3,30.30,South,178,7.0,14.0,53,0.00,,,0.00,Wunderground v.1.15,2013-04-21 20:32:00,
2013-04-21 15:37:00,56.6,37.6,30.30,East,96,7.0,14.0,49,0.00,,,0.00,Wunderground v.1.15,2013-04-21 20:37:00,
2013-04-21 15:43:00,56.2,37.8,30.30,East,93,8.0,16.0,50,0.00,,,0.00,Wunderground v.1.15,2013-04-21 20:43:00,
2013-04-21 15:48:00,56.0,38.6,30.30,SSW,200,9.0,24.0,52,0.00,,,0.00,Wunderground v.1.15,2013-04-21 20:48:00,
2013-04-21 15:54:00,56.0,38.1,30.30,ESE,121,11.0,12.0,51,0.00,,,0.00,Wunderground v.1.15,2013-04-21 20:54:00,
2013-04-21 15:59:00,57.0,39.0,30.30,SSE,168,8.0,16.0,51,0.00,,,0.00,Wunderground v.1.15,2013-04-21 20:59:00,
2013-04-21 16:05:00,56.5,38.6,30.29,ESE,107,7.0,14.0,51,0.00,,,0.00,Wunderground v.1.15,2013-04-21 21:05:00,
2013-04-21 16:10:00,56.6,38.2,30.29,SSW,203,9.0,9.0,50,0.00,,,0.00,Wunderground v.1.15,2013-04-21 21:10:00,
2013-04-21 16:16:00,57.0,38.5,30.29,ESE,123,7.0,12.0,50,0.00,,,0.00,Wunderground v.1.15,2013-04-21 21:16:00,
2013-04-21 16:22:00,57.0,38.0,30.29,South,175,7.0,7.0,49,0.00,,,0.00,Wunderground v.1.15,2013-04-21 21:22:00,
2013-04-21 16:27:00,56.9,37.9,30.29,SSE,154,8.0,11.0,49,0.00,,,0.00,Wunderground v.1.15,2013-04-21 21:27:00,
2013-04-21 16:33:00,57.0,38.5,30.28,South,181,8.0,9.0,50,0.00,,,0.00,Wunderground v.1.15,2013-04-21 21:33:00,
2013-04-21 16:38:00,57.2,39.2,30.28,SSE,157,7.0,11.0,51,0.00,,,0.00,Wunderground v.1.15,2013-04-21 21:38:00,
2013-04-21 16:44:00,57.3,39.3,30.28,SE,126,7.0,20.0,51,0.00,,,0.00,Wunderground v.1.15,2013-04-21 21:44:00,
2013-04-21 16:49:00,57.0,38.5,30.28,South,175,9.0,20.0,50,0.00,,,0.00,Wunderground v.1.15,2013-04-21 21:49:00,
2013-04-21 16:55:00,57.2,39.2,30.28,SE,136,8.0,13.0,51,0.00,,,0.00,Wunderground v.1.15,2013-04-21 21:55:00,
2013-04-21 17:00:00,56.7,38.8,30.27,SE,131,8.0,8.0,51,0.00,,,0.00,Wunderground v.1.15,2013-04-21 22:00:00,
2013-04-21 17:06:00,56.9,38.9,30.27,SE,144,8.0,12.0,51,0.00,,,0.00,Wunderground v.1.15,2013-04-21 22:06:00,
2013-04-21 17:12:00,57.0,39.0,30.27,ESE,102,7.0,14.0,51,0.00,,,0.00,Wunderground v.1.15,2013-04-21 22:12:00,
2013-04-21 17:17:00,57.0,39.0,30.27,East,89,7.0,14.0,51,0.00,,,0.00,Wunderground v.1.15,2013-04-21 22:17:00,
2013-04-21 17:22:00,57.0,39.5,30.27,SE,133,8.0,17.0,52,0.00,,,0.00,Wunderground v.1.15,2013-04-21 22:22:00,
2013-04-21 17:27:00,57.2,39.2,30.27,ESE,123,7.0,17.0,51,0.00,,,0.00,Wunderground v.1.15,2013-04-21 22:27:00,
2013-04-21 17:33:00,56.9,39.4,30.27,ESE,104,7.0,12.0,52,0.00,,,0.00,Wunderground v.1.15,2013-04-21 22:33:00,
2013-04-21 17:39:00,57.0,39.5,30.27,SE,144,7.0,12.0,52,0.00,,,0.00,Wunderground v.1.15,2013-04-21 22:39:00,
2013-04-21 17:44:00,57.0,39.5,30.27,ESE,112,7.0,14.0,52,0.00,,,0.00,Wunderground v.1.15,2013-04-21 22:44:00,
2013-04-21 17:49:00,56.9,39.9,30.27,SE,134,8.0,14.0,53,0.00,,,0.00,Wunderground v.1.15,2013-04-21 22:49:00,
2013-04-21 17:55:00,57.0,39.5,30.27,SE,127,7.0,12.0,52,0.00,,,0.00,Wunderground v.1.15,2013-04-21 22:55:00,
2013-04-21 18:00:00,57.5,40.5,30.27,ESE,106,4.0,4.0,53,0.00,,,0.00,Wunderground v.1.15,2013-04-21 23:00:00,
2013-04-21 18:06:00,57.2,40.2,30.27,SE,128,3.0,4.0,53,0.00,,,0.00,Wunderground v.1.15,2013-04-21 23:06:00,
2013-04-21 18:11:00,56.7,39.7,30.27,ESE,114,4.0,10.0,53,0.00,,,0.00,Wunderground v.1.15,2013-04-21 23:11:00,
2013-04-21 18:16:00,56.5,39.6,30.27,SE,127,7.0,10.0,53,0.00,,,0.00,Wunderground v.1.15,2013-04-21 23:16:00,
2013-04-21 18:22:00,56.5,40.0,30.27,South,169,8.0,9.0,54,0.00,,,0.00,Wunderground v.1.15,2013-04-21 23:22:00,
2013-04-21 18:27:00,56.3,39.9,30.27,East,85,8.0,12.0,54,0.00,,,0.00,Wunderground v.1.15,2013-04-21 23:27:00,
2013-04-21 18:32:00,56.5,40.0,30.27,ESE,119,7.0,11.0,54,0.00,,,0.00,Wunderground v.1.15,2013-04-21 23:32:00,
2013-04-21 18:38:00,56.3,40.3,30.27,ESE,114,6.0,13.0,55,0.00,,,0.00,Wunderground v.1.15,2013-04-21 23:38:00,
2013-04-21 18:44:00,56.0,39.6,30.27,ESE,117,8.0,8.0,54,0.00,,,0.00,Wunderground v.1.15,2013-04-21 23:44:00,
2013-04-21 18:49:00,55.9,39.5,30.27,ESE,113,6.0,14.0,54,0.00,,,0.00,Wunderground v.1.15,2013-04-21 23:49:00,
2013-04-21 18:55:00,55.6,39.2,30.27,ESE,120,7.0,11.0,54,0.00,,,0.00,Wunderground v.1.15,2013-04-21 23:55:00,
2013-04-21 19:00:00,55.3,39.9,30.26,SE,128,7.0,11.0,56,0.00,,,0.00,Wunderground v.1.15,2013-04-22 00:00:00,
2013-04-21 19:05:00,55.1,39.7,30.26,SE,127,6.0,11.0,56,0.00,,,0.00,Wunderground v.1.15,2013-04-22 00:05:00,
2013-04-21 19:11:00,55.1,39.2,30.26,SE,124,6.0,6.0,55,0.00,,,0.00,Wunderground v.1.15,2013-04-22 00:11:00,
2013-04-21 19:16:00,54.8,38.9,30.26,South,175,7.0,13.0,55,0.00,,,0.00,Wunderground v.1.15,2013-04-22 00:16:00,
2013-04-21 19:22:00,54.7,39.3,30.26,ESE,109,6.0,11.0,56,0.00,,,0.00,Wunderground v.1.15,2013-04-22 00:22:00,
2013-04-21 19:27:00,54.5,39.1,30.26,SE,133,7.0,13.0,56,0.00,,,0.00,Wunderground v.1.15,2013-04-22 00:27:00,
2013-04-21 19:33:00,54.4,39.0,30.26,East,93,6.0,8.0,56,0.00,,,0.00,Wunderground v.1.15,2013-04-22 00:33:00,
2013-04-21 19:38:00,54.2,38.8,30.26,ESE,119,6.0,10.0,56,0.00,,,0.00,Wunderground v.1.15,2013-04-22 00:38:00,
2013-04-21 19:44:00,54.1,38.7,30.26,SSE,151,6.0,6.0,56,0.00,,,0.00,Wunderground v.1.15,2013-04-22 00:44:00,
2013-04-21 19:50:00,53.9,38.6,30.26,SE,133,11.0,11.0,56,0.00,,,0.00,Wunderground v.1.15,2013-04-22 00:50:00,
2013-04-21 19:55:00,53.8,38.5,30.26,East,96,3.0,11.0,56,0.00,,,0.00,Wunderground v.1.15,2013-04-22 00:55:00,
2013-04-21 20:00:00,53.5,39.1,30.27,SSE,160,3.0,3.0,58,0.00,,,0.00,Wunderground v.1.15,2013-04-22 01:00:00,
2013-04-21 20:06:00,53.5,39.1,30.27,ESE,104,6.0,8.0,58,0.00,,,0.00,Wunderground v.1.15,2013-04-22 01:06:00,
2013-04-21 20:12:00,53.1,38.7,30.27,East,99,13.0,13.0,58,0.00,,,0.00,Wunderground v.1.15,2013-04-22 01:12:00,
2013-04-21 20:17:00,52.9,38.5,30.27,ESE,117,4.0,13.0,58,0.00,,,0.00,Wunderground v.1.15,2013-04-22 01:17:00,
2013-04-21 20:23:00,52.8,38.4,30.27,ESE,123,7.0,8.0,58,0.00,,,0.00,Wunderground v.1.15,2013-04-22 01:23:00,
2013-04-21 20:28:00,52.6,38.2,30.27,SE,128,5.0,8.0,58,0.00,,,0.00,Wunderground v.1.15,2013-04-22 01:28:00,
2013-04-21 20:34:00,52.5,38.6,30.27,SE,130,4.0,7.0,59,0.00,,,0.00,Wunderground v.1.15,2013-04-22 01:34:00,
2013-04-21 20:40:00,52.3,38.8,30.27,SE,127,4.0,5.0,60,0.00,,,0.00,Wunderground v.1.15,2013-04-22 01:40:00,
2013-04-21 20:46:00,52.3,38.8,30.27,ESE,123,5.0,11.0,60,0.00,,,0.00,Wunderground v.1.15,2013-04-22 01:46:00,
2013-04-21 20:52:00,52.0,39.0,30.27,ESE,121,5.0,6.0,61,0.00,,,0.00,Wunderground v.1.15,2013-04-22 01:52:00,
2013-04-21 20:57:00,52.0,39.0,30.27,SE,138,3.0,7.0,61,0.00,,,0.00,Wunderground v.1.15,2013-04-22 01:57:00,
2013-04-21 21:03:00,52.0,39.0,30.27,ESE,107,3.0,3.0,61,0.00,,,0.00,Wunderground v.1.15,2013-04-22 02:03:00,
2013-04-21 21:08:00,52.0,39.0,30.27,ESE,107,3.0,3.0,61,0.00,,,0.00,Wunderground v.1.15,2013-04-22 02:08:00,
2013-04-21 21:14:00,-999.9,-99.9,30.27,North,32767,-999.0,3.0,255,-99.99,,,0.00,Wunderground v.1.15,2013-04-22 02:14:00,
2013-04-21 21:19:00,-999.9,-99.9,30.28,North,32767,-999.0,3.0,255,-99.99,,,0.00,Wunderground v.1.15,2013-04-22 02:19:00,
2013-04-21 21:25:00,-999.9,-99.9,30.28,North,32767,-999.0,0.0,255,-99.99,,,0.00,Wunderground v.1.15,2013-04-22 02:25:00,
2013-04-21 21:30:00,-999.9,-99.9,30.28,North,32767,-999.0,0.0,255,-99.99,,,0.00,Wunderground v.1.15,2013-04-22 02:30:00,
2013-04-21 21:35:00,-999.9,-99.9,30.28,North,32767,-999.0,0.0,255,-99.99,,,0.00,Wunderground v.1.15,2013-04-22 02:35:00,
2013-04-21 21:40:00,-999.9,-99.9,30.28,North,32767,-999.0,0.0,255,-99.99,,,0.00,Wunderground v.1.15,2013-04-22 02:40:00,
2013-04-21 21:45:00,51.9,38.0,30.28,SE,124,7.0,7.0,59,0.00,,,0.00,Wunderground v.1.15,2013-04-22 02:45:00,
2013-04-21 21:50:00,51.9,38.4,30.28,SSE,148,4.0,8.0,60,0.00,,,0.00,Wunderground v.1.15,2013-04-22 02:50:00,
2013-04-21 21:55:00,51.7,37.8,30.28,ESE,109,3.0,10.0,59,0.00,,,0.00,Wunderground v.1.15,2013-04-22 02:55:00,
2013-04-21 22:00:00,51.7,37.8,30.28,SSE,158,5.0,-999.0,59,0.00,,,0.00,Wunderground v.1.15,2013-04-22 03:00:00,
2013-04-21 22:01:00,51.7,37.8,30.28,SSE,165,5.0,10.0,59,0.00,,,0.00,Wunderground v.1.15,2013-04-22 03:01:00,
2013-04-21 22:05:00,51.7,37.8,30.28,SE,135,5.0,-999.0,59,0.00,,,0.00,Wunderground v.1.15,2013-04-22 03:05:00,
2013-04-21 22:07:00,51.7,37.8,30.28,ESE,121,6.0,11.0,59,0.00,,,0.00,Wunderground v.1.15,2013-04-22 03:07:00,
2013-04-21 22:10:00,51.7,37.8,30.28,SE,135,5.0,-999.0,59,0.00,,,0.00,Wunderground v.1.15,2013-04-22 03:10:00,
2013-04-21 22:12:00,51.6,37.7,30.28,SSE,151,6.0,7.0,59,0.00,,,0.00,Wunderground v.1.15,2013-04-22 03:12:00,
2013-04-21 22:15:00,51.5,38.1,30.28,ESE,113,4.0,-999.0,60,0.00,,,0.00,Wunderground v.1.15,2013-04-22 03:15:00,
2013-04-21 22:18:00,51.4,38.0,30.28,SE,130,4.0,7.0,60,0.00,,,0.00,Wunderground v.1.15,2013-04-22 03:18:00,
2013-04-21 22:20:00,51.5,38.1,30.28,ESE,113,4.0,-999.0,60,0.00,,,0.00,Wunderground v.1.15,2013-04-22 03:20:00,
2013-04-21 22:23:00,51.3,37.9,30.28,SSE,151,5.0,7.0,60,0.00,,,0.00,Wunderground v.1.15,2013-04-22 03:23:00,
2013-04-21 22:25:00,51.2,38.2,30.28,SSE,158,5.0,-999.0,61,0.00,,,0.00,Wunderground v.1.15,2013-04-22 03:25:00,
2013-04-21 22:28:00,51.1,37.7,30.28,SE,141,6.0,7.0,60,0.00,,,0.00,Wunderground v.1.15,2013-04-22 03:28:00,
2013-04-21 22:30:00,51.2,38.2,30.28,SSE,158,5.0,-999.0,61,0.00,,,0.00,Wunderground v.1.15,2013-04-22 03:30:00,
2013-04-21 22:34:00,51.0,38.0,30.28,SE,141,5.0,8.0,61,0.00,,,0.00,Wunderground v.1.15,2013-04-22 03:34:00,
2013-04-21 22:35:00,50.9,37.9,30.28,SSE,158,5.0,-999.0,61,0.00,,,0.00,Wunderground v.1.15,2013-04-22 03:35:00,
2013-04-21 22:40:00,50.9,37.9,30.28,SSE,158,5.0,-999.0,61,0.00,,,0.00,Wunderground v.1.15,2013-04-22 03:40:00,
2013-04-21 22:42:00,50.8,37.8,30.28,South,181,5.0,5.0,61,0.00,,,0.00,Wunderground v.1.15,2013-04-22 03:42:00,
2013-04-21 22:48:00,50.8,37.8,30.29,SE,136,5.0,7.0,61,0.00,,,0.00,Wunderground v.1.15,2013-04-22 03:48:00,
2013-04-21 22:54:00,50.7,37.7,30.29,SSE,165,4.0,6.0,61,0.00,,,0.00,Wunderground v.1.15,2013-04-22 03:54:00,
2013-04-21 23:01:00,50.4,37.4,30.29,ESE,121,1.0,4.0,61,0.00,,,0.00,Wunderground v.1.15,2013-04-22 04:01:00,
2013-04-21 23:06:00,50.2,37.3,30.29,SSE,157,11.0,13.0,61,0.00,,,0.00,Wunderground v.1.15,2013-04-22 04:06:00,
2013-04-21 23:11:00,50.1,37.6,30.29,South,181,4.0,6.0,62,0.00,,,0.00,Wunderground v.1.15,2013-04-22 04:11:00,
2013-04-21 23:16:00,50.1,37.6,30.29,SE,134,3.0,7.0,62,0.00,,,0.00,Wunderground v.1.15,2013-04-22 04:16:00,
2013-04-21 23:21:00,49.8,37.3,30.29,SE,143,3.0,7.0,62,0.00,,,0.00,Wunderground v.1.15,2013-04-22 04:21:00,
2013-04-21 23:26:00,49.6,37.5,30.29,SE,144,5.0,10.0,63,0.00,,,0.00,Wunderground v.1.15,2013-04-22 04:26:00,
2013-04-21 23:31:00,49.5,37.4,30.28,SSE,167,1.0,5.0,63,0.00,,,0.00,Wunderground v.1.15,2013-04-22 04:31:00,
2013-04-21 23:36:00,49.4,37.3,30.28,South,169,2.0,6.0,63,0.00,,,0.00,Wunderground v.1.15,2013-04-22 04:36:00,
2013-04-21 23:42:00,49.1,37.4,30.28,ESE,117,2.0,4.0,64,0.00,,,0.00,Wunderground v.1.15,2013-04-22 04:42:00,
2013-04-21 23:47:00,48.9,37.6,30.28,SE,134,2.0,7.0,65,0.00,,,0.00,Wunderground v.1.15,2013-04-22 04:47:00,
2013-04-21 23:52:00,48.6,37.4,30.28,SE,130,0.0,2.0,65,0.00,,,0.00,Wunderground v.1.15,2013-04-22 04:52:00,
2013-04-21 23:57:00,48.5,37.3,30.28,SE,131,3.0,4.0,65,0.00,,,0.00,Wunderground v.1.15,2013-04-22 04:57:00,